Nashville, TN

3:16 PM CDT on September 27, 2016 (GMT -0500)
Nashville International

Weather History for KBNA - November, 2012

Change the Weather History Date:

Sunday, November 11, 2012

  Actual Average Record
Temperature  
Mean Temperature 61 °F 52 °F  
Max Temperature 72 °F 62 °F 83 °F (1989)
Min Temperature 49 °F 41 °F 20 °F (1960)
Degree Days  
Heating Degree Days 4    
Month to date heating degree days 153  
Since 1 July heating degree days 393  
Cooling Degree Days 0    
Month to date cooling degree days 0  
Year to date cooling degree days 1975  
Growing Degree Days 10 (Base 50)    
Moisture  
Dew Point 43 °F    
Average Humidity 51    
Maximum Humidity 66    
Minimum Humidity 36    
Precipitation  
Precipitation 0.00 in 0.13 in 0.99 in (1935)
Month to date precipitation 0.25 1.36  
Year to date precipitation 39.98 40.06  
Snow  
Snow 0.00 in - - ()
Month to date snowfall 0.0  
Snow Depth 0.00 in    
Sea Level Pressure  
Sea Level Pressure 30.19 in    
Wind  
Wind Speed 14 mph (South)    
Max Wind Speed 28 mph    
Max Gust Speed 36 mph    
Visibility 10 miles    
Events      
T = Trace of Precipitation, MM = Missing Value Source: NWS Daily Summary

Daily Weather History Graph

Daily Weather History Graph

Search for Another Location

Airport or City:

Trip Planner

Search our weather history database for the weather conditions in past years. The results will help you decide how hot, cold, wet, or windy it might be!

Date:

Astronomy

Nov. 11, 2012 Rise Set
Actual Time 6:19 AM CST 4:41 PM CST
Civil Twilight 5:52 AM CST 5:08 PM CST
Nautical Twilight 5:21 AM CST 5:39 PM CST
Astronomical Twilight 4:51 AM CST 6:09 PM CST
Moon 3:37 AM CST (11/11) 3:01 PM CST (11/11)
Length of Visible Light 11h 15m
Length of Day
10h 21m
Waning Crescent, 7% of the Moon is Illuminated
Nov 11
Waning Crescent
Nov 13
New
Nov 20
First Quarter
Nov 28
Full
Dec 6
Last Quarter

Hourly Weather History & Observations

Time (CST) Temp. Dew Point Humidity Pressure Visibility Wind Dir Wind Speed Gust Speed Precip Events Conditions
12:53 AM 55.0 °F 39.0 °F 55% 30.21 in 10.0 mi SSE 9.2 mph - N/A   Scattered Clouds
1:53 AM 54.0 °F 39.0 °F 57% 30.20 in 10.0 mi South 9.2 mph - N/A   Scattered Clouds
2:53 AM 54.0 °F 37.9 °F 55% 30.20 in 10.0 mi SSE 9.2 mph - N/A   Scattered Clouds
3:53 AM 51.1 °F 37.9 °F 61% 30.22 in 10.0 mi SSE 3.5 mph - N/A   Scattered Clouds
4:53 AM 51.1 °F 37.0 °F 59% 30.24 in 10.0 mi South 3.5 mph - N/A   Scattered Clouds
5:53 AM 48.9 °F 37.0 °F 64% 30.26 in 10.0 mi Calm Calm - N/A   Scattered Clouds
6:53 AM 54.0 °F 39.0 °F 57% 30.27 in 10.0 mi SSE 11.5 mph - N/A   Clear
7:53 AM 57.0 °F 39.0 °F 51% 30.27 in 10.0 mi South 13.8 mph - N/A   Mostly Cloudy
9:53 AM 66.2 °F 39.2 °F 37% 30.27 in 10.0 mi South 19.6 mph 27.6 mph N/A   Mostly Cloudy
10:53 AM 66.9 °F 39.9 °F 37% 30.25 in 10.0 mi South 19.6 mph 25.3 mph N/A   Mostly Cloudy
11:53 AM 69.8 °F 44.6 °F 40% 30.22 in 10.0 mi South 19.6 mph 26.5 mph N/A   Mostly Cloudy
12:53 PM 70.0 °F 42.1 °F 36% 30.17 in 10.0 mi South 24.2 mph 35.7 mph N/A   Mostly Cloudy
1:53 PM 70.0 °F 41.0 °F 35% 30.15 in 10.0 mi South 19.6 mph 28.8 mph N/A   Mostly Cloudy
2:53 PM 71.1 °F 45.0 °F 39% 30.14 in 10.0 mi South 19.6 mph 27.6 mph N/A   Mostly Cloudy
3:53 PM 68.0 °F 48.0 °F 49% 30.14 in 10.0 mi South 23.0 mph 35.7 mph N/A   Mostly Cloudy
4:53 PM 66.9 °F 46.9 °F 49% 30.14 in 10.0 mi South 12.7 mph - N/A   Mostly Cloudy
5:53 PM 64.9 °F 46.9 °F 52% 30.15 in 10.0 mi South 13.8 mph - N/A   Mostly Cloudy
6:53 PM 64.9 °F 46.9 °F 52% 30.14 in 10.0 mi SSE 13.8 mph 21.9 mph N/A   Scattered Clouds
7:53 PM 64.0 °F 48.0 °F 56% 30.11 in 10.0 mi SSE 17.3 mph 25.3 mph N/A   Mostly Cloudy
8:53 PM 64.9 °F 48.9 °F 56% 30.11 in 10.0 mi South 17.3 mph 27.6 mph N/A   Mostly Cloudy
9:53 PM 64.0 °F 48.9 °F 58% 30.10 in 10.0 mi South 20.7 mph 28.8 mph N/A   Overcast
10:53 PM 64.0 °F 48.9 °F 58% 30.11 in 10.0 mi South 12.7 mph - N/A   Overcast
11:53 PM 66.0 °F 48.9 °F 54% 30.15 in 10.0 mi SSW 6.9 mph - N/A   Overcast